Year,Month,Day,Hour,Minute,Value (Times are PST for temperature in C)
2015,08,13,00,00,15.90
2015,08,13,00,01,15.90
2015,08,13,00,02,16.00
2015,08,13,00,03,16.00
2015,08,13,00,04,16.10
2015,08,13,00,05,16.10
2015,08,13,00,06,16.10
2015,08,13,00,07,16.10
2015,08,13,00,08,16.10
2015,08,13,00,09,16.10
2015,08,13,00,10,16.00
2015,08,13,00,11,16.00
2015,08,13,00,12,16.00
2015,08,13,00,13,15.90
2015,08,13,00,14,15.90
2015,08,13,00,15,15.90
2015,08,13,00,16,15.90
2015,08,13,00,17,15.90
2015,08,13,00,18,15.90
2015,08,13,00,19,15.90
2015,08,13,00,20,15.90
2015,08,13,00,21,15.90
2015,08,13,00,22,15.90
2015,08,13,00,23,16.00
2015,08,13,00,24,16.10
2015,08,13,00,25,16.20
2015,08,13,00,26,16.20
2015,08,13,00,27,16.30
2015,08,13,00,28,16.40
2015,08,13,00,29,16.40
2015,08,13,00,30,16.50
2015,08,13,00,31,16.60
2015,08,13,00,32,16.50
2015,08,13,00,33,16.50
2015,08,13,00,34,16.40
2015,08,13,00,35,16.30
2015,08,13,00,36,16.30
2015,08,13,00,37,16.30
2015,08,13,00,38,16.20
2015,08,13,00,39,16.20
2015,08,13,00,40,16.10
2015,08,13,00,41,16.10
2015,08,13,00,42,16.10
2015,08,13,00,43,16.10
2015,08,13,00,44,16.10
2015,08,13,00,45,16.20
2015,08,13,00,46,16.20
2015,08,13,00,47,16.30
2015,08,13,00,48,16.30
2015,08,13,00,49,16.30
2015,08,13,00,50,16.30
2015,08,13,00,51,16.30
2015,08,13,00,52,16.30
2015,08,13,00,53,16.40
2015,08,13,00,54,16.40
2015,08,13,00,55,16.30
2015,08,13,00,56,16.30
2015,08,13,00,57,16.30
2015,08,13,00,58,16.30
2015,08,13,00,59,16.30
2015,08,13,01,00,16.30
2015,08,13,01,01,16.30
2015,08,13,01,02,16.20
2015,08,13,01,03,16.20
2015,08,13,01,04,16.10
2015,08,13,01,05,16.10
2015,08,13,01,06,16.00
2015,08,13,01,07,15.90
2015,08,13,01,08,15.90
2015,08,13,01,09,15.80
2015,08,13,01,10,15.80
2015,08,13,01,11,15.80
2015,08,13,01,12,15.70
2015,08,13,01,13,15.70
2015,08,13,01,14,15.70
2015,08,13,01,15,15.70
2015,08,13,01,16,15.60
2015,08,13,01,17,15.60
2015,08,13,01,18,15.60
2015,08,13,01,19,15.50
2015,08,13,01,20,15.40
2015,08,13,01,21,15.40
2015,08,13,01,22,15.30
2015,08,13,01,23,15.30
2015,08,13,01,24,15.20
2015,08,13,01,25,15.20
2015,08,13,01,26,15.10
2015,08,13,01,27,15.10
2015,08,13,01,28,15.10
2015,08,13,01,29,15.10
2015,08,13,01,30,15.00
2015,08,13,01,31,15.00
2015,08,13,01,32,15.00
2015,08,13,01,33,15.00
2015,08,13,01,34,14.90
2015,08,13,01,35,14.90
2015,08,13,01,36,14.90
2015,08,13,01,37,14.90
2015,08,13,01,38,14.90
2015,08,13,01,39,14.90
2015,08,13,01,40,14.90
2015,08,13,01,41,14.90
2015,08,13,01,42,14.90
2015,08,13,01,43,14.90
2015,08,13,01,44,14.90
2015,08,13,01,45,14.90
2015,08,13,01,46,14.90
2015,08,13,01,47,14.90
2015,08,13,01,48,14.90
2015,08,13,01,49,14.90
2015,08,13,01,50,14.80
2015,08,13,01,51,14.80
2015,08,13,01,52,14.80
2015,08,13,01,53,14.80
2015,08,13,01,54,14.80
2015,08,13,01,55,14.80
2015,08,13,01,56,14.70
2015,08,13,01,57,14.70
2015,08,13,01,58,14.70
2015,08,13,01,59,14.60
2015,08,13,02,00,14.60
2015,08,13,02,01,14.60
2015,08,13,02,02,14.60
2015,08,13,02,03,14.60
2015,08,13,02,04,14.60
2015,08,13,02,05,14.50
2015,08,13,02,06,14.50
2015,08,13,02,07,14.50
2015,08,13,02,08,14.50
2015,08,13,02,09,14.50
2015,08,13,02,10,14.50
2015,08,13,02,11,14.50
2015,08,13,02,12,14.50
2015,08,13,02,13,14.40
2015,08,13,02,14,14.40
2015,08,13,02,15,14.40
2015,08,13,02,16,14.40
2015,08,13,02,17,14.40
2015,08,13,02,18,14.40
2015,08,13,02,19,14.40
2015,08,13,02,20,14.30
2015,08,13,02,21,14.30
2015,08,13,02,22,14.30
2015,08,13,02,23,14.30
2015,08,13,02,24,14.20
2015,08,13,02,25,14.20
2015,08,13,02,26,14.20
2015,08,13,02,27,14.20
2015,08,13,02,28,14.20
2015,08,13,02,29,14.20
2015,08,13,02,30,14.10
2015,08,13,02,31,14.10
2015,08,13,02,32,14.10
2015,08,13,02,33,14.10
2015,08,13,02,34,14.00
2015,08,13,02,35,14.00
2015,08,13,02,36,14.00
2015,08,13,02,37,14.00
2015,08,13,02,38,13.90
2015,08,13,02,39,13.90
2015,08,13,02,40,13.90
2015,08,13,02,41,13.90
2015,08,13,02,42,13.80
2015,08,13,02,43,13.80
2015,08,13,02,44,13.80
2015,08,13,02,45,13.80
2015,08,13,02,46,13.80
2015,08,13,02,47,13.80
2015,08,13,02,48,13.70
2015,08,13,02,49,13.70
2015,08,13,02,50,13.70
2015,08,13,02,51,13.70
2015,08,13,02,52,13.70
2015,08,13,02,53,13.70
2015,08,13,02,54,13.70
2015,08,13,02,55,13.70
2015,08,13,02,56,13.70
2015,08,13,02,57,13.60
2015,08,13,02,58,13.60
2015,08,13,02,59,13.60
2015,08,13,03,00,13.60
2015,08,13,03,01,13.50
2015,08,13,03,02,13.50
2015,08,13,03,03,13.50
2015,08,13,03,04,13.40
2015,08,13,03,05,13.40
2015,08,13,03,06,13.40
2015,08,13,03,07,13.40
2015,08,13,03,08,13.30
2015,08,13,03,09,13.30
2015,08,13,03,10,13.30
2015,08,13,03,11,13.30
2015,08,13,03,12,13.30
2015,08,13,03,13,13.20
2015,08,13,03,14,13.20
2015,08,13,03,15,13.20
2015,08,13,03,16,13.20
2015,08,13,03,17,13.20
2015,08,13,03,18,13.20
2015,08,13,03,19,13.20
2015,08,13,03,20,13.10
2015,08,13,03,21,13.10
2015,08,13,03,22,13.10
2015,08,13,03,23,13.10
2015,08,13,03,24,13.10
2015,08,13,03,25,13.10
2015,08,13,03,26,13.10
2015,08,13,03,27,13.10
2015,08,13,03,28,13.10
2015,08,13,03,29,13.10
2015,08,13,03,30,13.10
2015,08,13,03,31,13.00
2015,08,13,03,32,13.00
2015,08,13,03,33,13.00
2015,08,13,03,34,13.00
2015,08,13,03,35,13.00
2015,08,13,03,36,12.90
2015,08,13,03,37,12.90
2015,08,13,03,38,12.90
2015,08,13,03,39,12.90
2015,08,13,03,40,12.90
2015,08,13,03,41,12.90
2015,08,13,03,42,12.90
2015,08,13,03,43,12.90
2015,08,13,03,44,12.90
2015,08,13,03,45,12.90
2015,08,13,03,46,12.90
2015,08,13,03,47,12.90
2015,08,13,03,48,12.90
2015,08,13,03,49,12.90
2015,08,13,03,50,12.90
2015,08,13,03,51,12.90
2015,08,13,03,52,12.90
2015,08,13,03,53,12.90
2015,08,13,03,54,12.90
2015,08,13,03,55,12.90
2015,08,13,03,56,12.90
2015,08,13,03,57,13.00
2015,08,13,03,58,13.00
2015,08,13,03,59,13.00
2015,08,13,04,00,12.90
2015,08,13,04,01,12.90
2015,08,13,04,02,12.90
2015,08,13,04,03,12.90
2015,08,13,04,04,12.90
2015,08,13,04,05,13.00
2015,08,13,04,06,13.00
2015,08,13,04,07,13.00
2015,08,13,04,08,13.00
2015,08,13,04,09,13.00
2015,08,13,04,10,13.00
2015,08,13,04,11,13.00
2015,08,13,04,12,13.00
2015,08,13,04,13,12.90
2015,08,13,04,14,12.90
2015,08,13,04,15,12.90
2015,08,13,04,16,12.90
2015,08,13,04,17,12.90
2015,08,13,04,18,12.90
2015,08,13,04,19,12.90
2015,08,13,04,20,12.80
2015,08,13,04,21,12.80
2015,08,13,04,22,12.80
2015,08,13,04,23,12.80
2015,08,13,04,24,12.80
2015,08,13,04,25,12.80
2015,08,13,04,26,12.80
2015,08,13,04,27,12.70
2015,08,13,04,28,12.70
2015,08,13,04,29,12.70
2015,08,13,04,30,12.70
2015,08,13,04,31,12.60
2015,08,13,04,32,12.60
2015,08,13,04,33,12.60
2015,08,13,04,34,12.60
2015,08,13,04,35,12.50
2015,08,13,04,36,12.50
2015,08,13,04,37,12.50
2015,08,13,04,38,12.50
2015,08,13,04,39,12.50
2015,08,13,04,40,12.40
2015,08,13,04,41,12.40
2015,08,13,04,42,12.40
2015,08,13,04,43,12.40
2015,08,13,04,44,12.40
2015,08,13,04,45,12.40
2015,08,13,04,46,12.40
2015,08,13,04,47,12.40
2015,08,13,04,48,12.40
2015,08,13,04,49,12.40
2015,08,13,04,50,12.30
2015,08,13,04,51,12.30
2015,08,13,04,52,12.30
2015,08,13,04,53,12.30
2015,08,13,04,54,12.30
2015,08,13,04,55,12.30
2015,08,13,04,56,12.20
2015,08,13,04,57,12.20
2015,08,13,04,58,12.20
2015,08,13,04,59,12.20
2015,08,13,05,00,12.10
2015,08,13,05,01,12.10
2015,08,13,05,02,12.10
2015,08,13,05,03,12.10
2015,08,13,05,04,12.10
2015,08,13,05,05,12.00
2015,08,13,05,06,12.00
2015,08,13,05,07,12.00
2015,08,13,05,08,12.00
2015,08,13,05,09,12.00
2015,08,13,05,10,11.90
2015,08,13,05,11,11.90
2015,08,13,05,12,11.90
2015,08,13,05,13,11.90
2015,08,13,05,14,11.80
2015,08,13,05,15,11.80
2015,08,13,05,16,11.80
2015,08,13,05,17,11.80
2015,08,13,05,18,11.80
2015,08,13,05,19,11.70
2015,08,13,05,20,11.70
2015,08,13,05,21,11.70
2015,08,13,05,22,11.70
2015,08,13,05,23,11.70
2015,08,13,05,24,11.80
2015,08,13,05,25,11.80
2015,08,13,05,26,11.80
2015,08,13,05,27,11.80
2015,08,13,05,28,11.80
2015,08,13,05,29,11.80
2015,08,13,05,30,11.80
2015,08,13,05,31,11.80
2015,08,13,05,32,11.80
2015,08,13,05,33,11.80
2015,08,13,05,34,11.80
2015,08,13,05,35,11.80
2015,08,13,05,36,11.80
2015,08,13,05,37,11.80
2015,08,13,05,38,11.80
2015,08,13,05,39,11.80
2015,08,13,05,40,11.80
2015,08,13,05,41,11.80
2015,08,13,05,42,11.80
2015,08,13,05,43,11.80
2015,08,13,05,44,11.80
2015,08,13,05,45,11.80
2015,08,13,05,46,11.80
2015,08,13,05,47,11.70
2015,08,13,05,48,11.70
2015,08,13,05,49,11.70
2015,08,13,05,50,11.70
2015,08,13,05,51,11.70
2015,08,13,05,52,11.70
2015,08,13,05,53,11.70
2015,08,13,05,54,11.70
2015,08,13,05,55,11.70
2015,08,13,05,56,11.70
2015,08,13,05,57,11.70
2015,08,13,05,58,11.70
2015,08,13,05,59,11.70
2015,08,13,06,00,11.70
2015,08,13,06,01,11.70
2015,08,13,06,02,11.70
2015,08,13,06,03,11.70
2015,08,13,06,04,11.70
2015,08,13,06,05,11.70
2015,08,13,06,06,11.70
2015,08,13,06,07,11.70
2015,08,13,06,08,11.70
2015,08,13,06,09,11.70
2015,08,13,06,10,11.60
2015,08,13,06,11,11.60
2015,08,13,06,12,11.60
2015,08,13,06,13,11.60
2015,08,13,06,14,11.60
2015,08,13,06,15,11.60
2015,08,13,06,16,11.60
2015,08,13,06,17,11.60
2015,08,13,06,18,11.60
2015,08,13,06,19,11.60
2015,08,13,06,20,11.60
2015,08,13,06,21,11.60
2015,08,13,06,22,11.60
2015,08,13,06,23,11.60
2015,08,13,06,24,11.60
2015,08,13,06,25,11.50
2015,08,13,06,26,11.50
2015,08,13,06,27,11.50
2015,08,13,06,28,11.50
2015,08,13,06,29,11.50
2015,08,13,06,30,11.50
2015,08,13,06,31,11.40
2015,08,13,06,32,11.40
2015,08,13,06,33,11.40
2015,08,13,06,34,11.40
2015,08,13,06,35,11.40
2015,08,13,06,36,11.40
2015,08,13,06,37,11.40
2015,08,13,06,38,11.40
2015,08,13,06,39,11.50
2015,08,13,06,40,11.50
2015,08,13,06,41,11.50
2015,08,13,06,42,11.50
2015,08,13,06,43,11.60
2015,08,13,06,44,11.60
2015,08,13,06,45,11.60
2015,08,13,06,46,11.60
2015,08,13,06,47,11.70
2015,08,13,06,48,11.70
2015,08,13,06,49,11.70
2015,08,13,06,50,11.70
2015,08,13,06,51,11.70
2015,08,13,06,52,11.70
2015,08,13,06,53,11.70
2015,08,13,06,54,11.70
2015,08,13,06,55,11.70
2015,08,13,06,56,11.80
2015,08,13,06,57,11.80
2015,08,13,06,58,11.80
2015,08,13,06,59,11.90
2015,08,13,07,00,11.90
2015,08,13,07,01,11.90
2015,08,13,07,02,12.00
2015,08,13,07,03,12.10
2015,08,13,07,04,12.10
2015,08,13,07,05,12.10
2015,08,13,07,06,12.10
2015,08,13,07,07,12.20
2015,08,13,07,08,12.20
2015,08,13,07,09,12.20
2015,08,13,07,10,12.20
2015,08,13,07,11,12.30
2015,08,13,07,12,12.30
2015,08,13,07,13,12.30
2015,08,13,07,14,12.30
2015,08,13,07,15,12.40
2015,08,13,07,16,12.40
2015,08,13,07,17,12.50
2015,08,13,07,18,12.50
2015,08,13,07,19,12.60
2015,08,13,07,20,12.60
2015,08,13,07,21,12.60
2015,08,13,07,22,12.70
2015,08,13,07,23,12.70
2015,08,13,07,24,12.80
2015,08,13,07,25,12.80
2015,08,13,07,26,12.90
2015,08,13,07,27,12.90
2015,08,13,07,28,13.00
2015,08,13,07,29,13.10
2015,08,13,07,30,13.10
2015,08,13,07,31,13.20
2015,08,13,07,32,13.20
2015,08,13,07,33,13.30
2015,08,13,07,34,13.30
2015,08,13,07,35,13.40
2015,08,13,07,36,13.40
2015,08,13,07,37,13.40
2015,08,13,07,38,13.50
2015,08,13,07,39,13.60
2015,08,13,07,40,13.60
2015,08,13,07,41,13.70
2015,08,13,07,42,13.70
2015,08,13,07,43,13.80
2015,08,13,07,44,14.00
2015,08,13,07,45,14.10
2015,08,13,07,46,14.10
2015,08,13,07,47,14.20
2015,08,13,07,48,14.30
2015,08,13,07,49,14.40
2015,08,13,07,50,14.50
2015,08,13,07,51,14.60
2015,08,13,07,52,14.80
2015,08,13,07,53,14.90
2015,08,13,07,54,15.00
2015,08,13,07,55,15.10
2015,08,13,07,56,15.20
2015,08,13,07,57,15.20
2015,08,13,07,58,15.20
2015,08,13,07,59,15.20
2015,08,13,08,00,15.30
2015,08,13,08,01,15.30
2015,08,13,08,02,15.40
2015,08,13,08,03,15.40
2015,08,13,08,04,15.50
2015,08,13,08,05,15.60
2015,08,13,08,06,15.60
2015,08,13,08,07,15.70
2015,08,13,08,08,15.70
2015,08,13,08,09,15.80
2015,08,13,08,10,15.80
2015,08,13,08,11,15.90
2015,08,13,08,12,15.90
2015,08,13,08,13,15.90
2015,08,13,08,14,15.90
2015,08,13,08,15,16.00
2015,08,13,08,16,16.00
2015,08,13,08,17,16.10
2015,08,13,08,18,16.10
2015,08,13,08,19,16.10
2015,08,13,08,20,16.10
2015,08,13,08,21,16.10
2015,08,13,08,22,16.20
2015,08,13,08,23,16.20
2015,08,13,08,24,16.20
2015,08,13,08,25,16.10
2015,08,13,08,26,16.10
2015,08,13,08,27,16.10
2015,08,13,08,28,16.10
2015,08,13,08,29,16.10
2015,08,13,08,30,16.10
2015,08,13,08,31,16.10
2015,08,13,08,32,16.10
2015,08,13,08,33,16.10
2015,08,13,08,34,16.10
2015,08,13,08,35,16.10
2015,08,13,08,36,16.10
2015,08,13,08,37,16.10
2015,08,13,08,38,16.10
2015,08,13,08,39,16.10
2015,08,13,08,40,16.10
2015,08,13,08,41,16.20
2015,08,13,08,42,16.20
2015,08,13,08,43,16.30
2015,08,13,08,44,16.30
2015,08,13,08,45,16.30
2015,08,13,08,46,16.40
2015,08,13,08,47,16.40
2015,08,13,08,48,16.50
2015,08,13,08,49,16.60
2015,08,13,08,50,16.60
2015,08,13,08,51,16.60
2015,08,13,08,52,16.60
2015,08,13,08,53,16.60
2015,08,13,08,54,16.60
2015,08,13,08,55,16.60
2015,08,13,08,56,16.50
2015,08,13,08,57,16.50
2015,08,13,08,58,16.50
2015,08,13,08,59,16.40
2015,08,13,09,00,16.40
2015,08,13,09,01,16.40
2015,08,13,09,02,16.30
2015,08,13,09,03,16.30
2015,08,13,09,04,16.30
2015,08,13,09,05,16.30
2015,08,13,09,06,16.30
2015,08,13,09,07,16.30
2015,08,13,09,08,16.30
2015,08,13,09,09,16.30
2015,08,13,09,10,16.30
2015,08,13,09,11,16.30
2015,08,13,09,12,16.30
2015,08,13,09,13,16.30
2015,08,13,09,14,16.30
2015,08,13,09,15,16.30
2015,08,13,09,16,16.40
2015,08,13,09,17,16.40
2015,08,13,09,18,16.40
2015,08,13,09,19,16.50
2015,08,13,09,20,16.50
2015,08,13,09,21,16.50
2015,08,13,09,22,16.60
2015,08,13,09,23,16.60
2015,08,13,09,24,16.70
2015,08,13,09,25,16.70
2015,08,13,09,26,16.70
2015,08,13,09,27,16.70
2015,08,13,09,28,16.70
2015,08,13,09,29,16.70
2015,08,13,09,30,16.70
2015,08,13,09,31,16.70
2015,08,13,09,32,16.70
2015,08,13,09,33,16.70
2015,08,13,09,34,16.80
2015,08,13,09,35,16.80
2015,08,13,09,36,16.80
2015,08,13,09,37,16.80
2015,08,13,09,38,16.80
2015,08,13,09,39,16.90
2015,08,13,09,40,16.90
2015,08,13,09,41,16.90
2015,08,13,09,42,17.00
2015,08,13,09,43,17.10
2015,08,13,09,44,17.10
2015,08,13,09,45,17.20
2015,08,13,09,46,17.20
2015,08,13,09,47,17.20
2015,08,13,09,48,17.30
2015,08,13,09,49,17.30
2015,08,13,09,50,17.30
2015,08,13,09,51,17.30
2015,08,13,09,52,17.40
2015,08,13,09,53,17.40
2015,08,13,09,54,17.40
2015,08,13,09,55,17.40
2015,08,13,09,56,17.50
2015,08,13,09,57,17.50
2015,08,13,09,58,17.60
2015,08,13,09,59,17.70
2015,08,13,10,00,17.70
2015,08,13,10,01,17.80
2015,08,13,10,02,17.80
2015,08,13,10,03,17.90
2015,08,13,10,04,17.90
2015,08,13,10,05,17.90
2015,08,13,10,06,17.80
2015,08,13,10,07,17.80
2015,08,13,10,08,17.80
2015,08,13,10,09,17.80
2015,08,13,10,10,17.80
2015,08,13,10,11,17.80
2015,08,13,10,12,17.80
2015,08,13,10,13,17.90
2015,08,13,10,14,17.90
2015,08,13,10,15,17.80
2015,08,13,10,16,17.80
2015,08,13,10,17,17.80
2015,08,13,10,18,17.80
2015,08,13,10,19,17.80
2015,08,13,10,20,17.80
2015,08,13,10,21,17.70
2015,08,13,10,22,17.70
2015,08,13,10,23,17.70
2015,08,13,10,24,17.70
2015,08,13,10,25,17.70
2015,08,13,10,26,17.70
2015,08,13,10,27,17.70
2015,08,13,10,28,17.70
2015,08,13,10,29,17.70
2015,08,13,10,30,17.70
2015,08,13,10,31,17.70
2015,08,13,10,32,17.70
2015,08,13,10,33,17.70
2015,08,13,10,34,17.70
2015,08,13,10,35,17.80
2015,08,13,10,36,17.80
2015,08,13,10,37,17.80
2015,08,13,10,38,17.80
2015,08,13,10,39,17.80
2015,08,13,10,40,17.80
2015,08,13,10,41,17.80
2015,08,13,10,42,17.80
2015,08,13,10,43,17.80
2015,08,13,10,44,17.80
2015,08,13,10,45,17.90
2015,08,13,10,46,17.90
2015,08,13,10,47,18.00
2015,08,13,10,48,18.00
2015,08,13,10,49,18.10
2015,08,13,10,50,18.10
2015,08,13,10,51,18.10
2015,08,13,10,52,18.20
2015,08,13,10,53,18.20
2015,08,13,10,54,18.20
2015,08,13,10,55,18.20
2015,08,13,10,56,18.20
2015,08,13,10,57,18.10
2015,08,13,10,58,18.10
2015,08,13,10,59,18.10
2015,08,13,11,00,18.10
2015,08,13,11,01,18.10
2015,08,13,11,02,18.10
2015,08,13,11,03,18.10
2015,08,13,11,04,18.00
2015,08,13,11,05,18.10
2015,08,13,11,06,18.10
2015,08,13,11,07,18.10
2015,08,13,11,08,18.10
2015,08,13,11,09,18.20
2015,08,13,11,10,18.20
2015,08,13,11,11,18.20
2015,08,13,11,12,18.30
2015,08,13,11,13,18.30
2015,08,13,11,14,18.30
2015,08,13,11,15,18.40
2015,08,13,11,16,18.50
2015,08,13,11,17,18.50
2015,08,13,11,18,18.60
2015,08,13,11,19,18.70
2015,08,13,11,20,18.70
2015,08,13,11,21,18.70
2015,08,13,11,22,18.70
2015,08,13,11,23,18.70
2015,08,13,11,24,18.70
2015,08,13,11,25,18.70
2015,08,13,11,26,18.70
2015,08,13,11,27,18.60
2015,08,13,11,28,18.60
2015,08,13,11,29,18.50
2015,08,13,11,30,18.40
2015,08,13,11,31,18.40
2015,08,13,11,32,18.40
2015,08,13,11,33,18.40
2015,08,13,11,34,18.40
2015,08,13,11,35,18.50
2015,08,13,11,36,18.50
2015,08,13,11,37,18.50
2015,08,13,11,38,18.40
2015,08,13,11,39,18.40
2015,08,13,11,40,18.40
2015,08,13,11,41,18.40
2015,08,13,11,42,18.40
2015,08,13,11,43,18.50
2015,08,13,11,44,18.50
2015,08,13,11,45,18.50
2015,08,13,11,46,18.50
2015,08,13,11,47,18.50
2015,08,13,11,48,18.50
2015,08,13,11,49,18.50
2015,08,13,11,50,18.50
2015,08,13,11,51,18.40
2015,08,13,11,52,18.40
2015,08,13,11,53,18.40
2015,08,13,11,54,18.40
2015,08,13,11,55,18.40
2015,08,13,11,56,18.50
2015,08,13,11,57,18.50
2015,08,13,11,58,18.40
2015,08,13,11,59,18.50
2015,08,13,12,00,18.50
2015,08,13,12,01,18.50
2015,08,13,12,02,18.50
2015,08,13,12,03,18.50
2015,08,13,12,04,18.50
2015,08,13,12,05,18.50
2015,08,13,12,06,18.50
2015,08,13,12,07,18.60
2015,08,13,12,08,18.60
2015,08,13,12,09,18.60
2015,08,13,12,10,18.70
2015,08,13,12,11,18.70
2015,08,13,12,12,18.70
2015,08,13,12,13,18.80
2015,08,13,12,14,18.80
2015,08,13,12,15,18.80
2015,08,13,12,16,18.80
2015,08,13,12,17,18.80
2015,08,13,12,18,18.90
2015,08,13,12,19,18.90
2015,08,13,12,20,18.90
2015,08,13,12,21,18.90
2015,08,13,12,22,19.00
2015,08,13,12,23,19.00
2015,08,13,12,24,19.10
2015,08,13,12,25,19.10
2015,08,13,12,26,19.10
2015,08,13,12,27,19.20
2015,08,13,12,28,19.20
2015,08,13,12,29,19.30
2015,08,13,12,30,19.30
2015,08,13,12,31,19.40
2015,08,13,12,32,19.50
2015,08,13,12,33,19.60
2015,08,13,12,34,19.60
2015,08,13,12,35,19.70
2015,08,13,12,36,19.70
2015,08,13,12,37,19.80
2015,08,13,12,38,19.90
2015,08,13,12,39,19.90
2015,08,13,12,40,19.90
2015,08,13,12,41,19.90
2015,08,13,12,42,20.00
2015,08,13,12,43,20.00
2015,08,13,12,44,20.10
2015,08,13,12,45,20.10
2015,08,13,12,46,20.20
2015,08,13,12,47,20.20
2015,08,13,12,48,20.20
2015,08,13,12,49,20.20
2015,08,13,12,50,20.20
2015,08,13,12,51,20.20
2015,08,13,12,52,20.20
2015,08,13,12,53,20.20
2015,08,13,12,54,20.20
2015,08,13,12,55,20.20
2015,08,13,12,56,20.20
2015,08,13,12,57,20.20
2015,08,13,12,58,20.30
2015,08,13,12,59,20.30
2015,08,13,13,00,20.30
2015,08,13,13,01,20.30
2015,08,13,13,02,20.30
2015,08,13,13,03,20.30
2015,08,13,13,04,20.30
2015,08,13,13,05,20.30
2015,08,13,13,06,20.30
2015,08,13,13,07,20.30
2015,08,13,13,08,20.30
2015,08,13,13,09,20.40
2015,08,13,13,10,20.40
2015,08,13,13,11,20.40
2015,08,13,13,12,20.50
2015,08,13,13,13,20.50
2015,08,13,13,14,20.50
2015,08,13,13,15,20.60
2015,08,13,13,16,20.60
2015,08,13,13,17,20.60
2015,08,13,13,18,20.70
2015,08,13,13,19,20.70
2015,08,13,13,20,20.70
2015,08,13,13,21,20.70
2015,08,13,13,22,20.70
2015,08,13,13,23,20.70
2015,08,13,13,24,20.70
2015,08,13,13,25,20.70
2015,08,13,13,26,20.70
2015,08,13,13,27,20.70
2015,08,13,13,28,20.70
2015,08,13,13,29,20.70
2015,08,13,13,30,20.70
2015,08,13,13,31,20.70
2015,08,13,13,32,20.70
2015,08,13,13,33,20.70
2015,08,13,13,34,20.70
2015,08,13,13,35,20.70
2015,08,13,13,36,20.70
2015,08,13,13,37,20.60
2015,08,13,13,38,20.60
2015,08,13,13,39,20.50
2015,08,13,13,40,20.50
2015,08,13,13,41,20.50
2015,08,13,13,42,20.50
2015,08,13,13,43,20.50
2015,08,13,13,44,20.50
2015,08,13,13,45,20.50
2015,08,13,13,46,20.50
2015,08,13,13,47,20.50
2015,08,13,13,48,20.50
2015,08,13,13,49,20.50
2015,08,13,13,50,20.50
2015,08,13,13,51,20.40
2015,08,13,13,52,20.40
2015,08,13,13,53,20.40
2015,08,13,13,54,20.40
2015,08,13,13,55,20.40
2015,08,13,13,56,20.40
2015,08,13,13,57,20.40
2015,08,13,13,58,20.40
2015,08,13,13,59,20.40
2015,08,13,14,00,20.40
2015,08,13,14,01,20.50
2015,08,13,14,02,20.60
2015,08,13,14,03,20.60
2015,08,13,14,04,20.70
2015,08,13,14,05,20.70
2015,08,13,14,06,20.70
2015,08,13,14,07,20.70
2015,08,13,14,08,20.70
2015,08,13,14,09,20.70
2015,08,13,14,10,20.70
2015,08,13,14,11,20.70
2015,08,13,14,12,20.70
2015,08,13,14,13,20.70
2015,08,13,14,14,20.70
2015,08,13,14,15,20.70
2015,08,13,14,16,20.80
2015,08,13,14,17,20.80
2015,08,13,14,18,20.80
2015,08,13,14,19,20.80
2015,08,13,14,20,20.90
2015,08,13,14,21,20.90
2015,08,13,14,22,20.90
2015,08,13,14,23,21.00
2015,08,13,14,24,21.10
2015,08,13,14,25,21.10
2015,08,13,14,26,21.00
2015,08,13,14,27,21.00
2015,08,13,14,28,20.90
2015,08,13,14,29,20.90
2015,08,13,14,30,20.80
2015,08,13,14,31,20.80
2015,08,13,14,32,20.70
2015,08,13,14,33,20.70
2015,08,13,14,34,20.70
2015,08,13,14,35,20.70
2015,08,13,14,36,20.60
2015,08,13,14,37,20.60
2015,08,13,14,38,20.60
2015,08,13,14,39,20.60
2015,08,13,14,40,20.60
2015,08,13,14,41,20.60
2015,08,13,14,42,20.50
2015,08,13,14,43,20.40
2015,08,13,14,44,20.40
2015,08,13,14,45,20.30
2015,08,13,14,46,20.30
2015,08,13,14,47,20.20
2015,08,13,14,48,20.20
2015,08,13,14,49,20.20
2015,08,13,14,50,20.20
2015,08,13,14,51,20.20
2015,08,13,14,52,20.20
2015,08,13,14,53,20.20
2015,08,13,14,54,20.10
2015,08,13,14,55,20.10
2015,08,13,14,56,20.10
2015,08,13,14,57,20.10
2015,08,13,14,58,20.00
2015,08,13,14,59,19.90
2015,08,13,15,00,19.90
2015,08,13,15,01,19.90
2015,08,13,15,02,19.80
2015,08,13,15,03,19.80
2015,08,13,15,04,19.80
2015,08,13,15,05,19.70
2015,08,13,15,06,19.70
2015,08,13,15,07,19.60
2015,08,13,15,08,19.60
2015,08,13,15,09,19.70
2015,08,13,15,10,19.70
2015,08,13,15,11,19.70
2015,08,13,15,12,19.80
2015,08,13,15,13,19.90
2015,08,13,15,14,19.90
2015,08,13,15,15,19.90
2015,08,13,15,16,20.00
2015,08,13,15,17,20.00
2015,08,13,15,18,20.10
2015,08,13,15,19,20.10
2015,08,13,15,20,20.00
2015,08,13,15,21,19.90
2015,08,13,15,22,19.90
2015,08,13,15,23,19.90
2015,08,13,15,24,19.90
2015,08,13,15,25,19.90
2015,08,13,15,26,19.90
2015,08,13,15,27,19.80
2015,08,13,15,28,19.80
2015,08,13,15,29,19.80
2015,08,13,15,30,19.80
2015,08,13,15,31,19.80
2015,08,13,15,32,19.80
2015,08,13,15,33,19.80
2015,08,13,15,34,19.80
2015,08,13,15,35,19.80
2015,08,13,15,36,19.80
2015,08,13,15,37,19.70
2015,08,13,15,38,19.70
2015,08,13,15,39,19.60
2015,08,13,15,40,19.40
2015,08,13,15,41,19.30
2015,08,13,15,42,19.20
2015,08,13,15,43,19.10
2015,08,13,15,44,19.10
2015,08,13,15,45,19.00
2015,08,13,15,46,19.00
2015,08,13,15,47,18.90
2015,08,13,15,48,18.90
2015,08,13,15,49,18.90
2015,08,13,15,50,18.90
2015,08,13,15,51,18.90
2015,08,13,15,52,18.90
2015,08,13,15,53,18.90
2015,08,13,15,54,18.90
2015,08,13,15,55,18.90
2015,08,13,15,56,18.90
2015,08,13,15,57,18.90
2015,08,13,15,58,18.90
2015,08,13,15,59,18.90
2015,08,13,16,00,18.80
2015,08,13,16,01,18.80
2015,08,13,16,02,18.90
2015,08,13,16,03,18.90
2015,08,13,16,04,18.90
2015,08,13,16,05,18.90
2015,08,13,16,06,18.90
2015,08,13,16,07,18.90
2015,08,13,16,08,18.90
2015,08,13,16,09,19.00
2015,08,13,16,10,19.00
2015,08,13,16,11,19.10
2015,08,13,16,12,19.10
2015,08,13,16,13,19.10
2015,08,13,16,14,19.10
2015,08,13,16,15,19.10
2015,08,13,16,16,19.10
2015,08,13,16,17,19.10
2015,08,13,16,18,19.10
2015,08,13,16,19,19.10
2015,08,13,16,20,19.10
2015,08,13,16,21,19.10
2015,08,13,16,22,19.10
2015,08,13,16,23,19.20
2015,08,13,16,24,19.20
2015,08,13,16,25,19.30
2015,08,13,16,26,19.30
2015,08,13,16,27,19.30
2015,08,13,16,28,19.30
2015,08,13,16,29,19.40
2015,08,13,16,30,19.40
2015,08,13,16,31,19.40
2015,08,13,16,32,19.40
2015,08,13,16,33,19.40
2015,08,13,16,34,19.30
2015,08,13,16,35,19.40
2015,08,13,16,36,19.40
2015,08,13,16,37,19.40
2015,08,13,16,38,19.40
2015,08,13,16,39,19.50
2015,08,13,16,40,19.60
2015,08,13,16,41,19.60
2015,08,13,16,42,19.60
2015,08,13,16,43,19.70
2015,08,13,16,44,19.70
2015,08,13,16,45,19.80
2015,08,13,16,46,19.80
2015,08,13,16,47,19.90
2015,08,13,16,48,19.90
2015,08,13,16,49,20.00
2015,08,13,16,50,20.10
2015,08,13,16,51,20.20
2015,08,13,16,52,20.30
2015,08,13,16,53,20.50
2015,08,13,16,54,20.50
2015,08,13,16,55,20.60
2015,08,13,16,56,20.70
2015,08,13,16,57,20.70
2015,08,13,16,58,20.70
2015,08,13,16,59,20.70
2015,08,13,17,00,20.70
2015,08,13,17,01,20.70
2015,08,13,17,02,20.70
2015,08,13,17,03,20.70
2015,08,13,17,04,20.60
2015,08,13,17,05,20.60
2015,08,13,17,06,20.50
2015,08,13,17,07,20.40
2015,08,13,17,08,20.30
2015,08,13,17,09,20.20
2015,08,13,17,10,20.20
2015,08,13,17,11,20.10
2015,08,13,17,12,20.00
2015,08,13,17,13,19.90
2015,08,13,17,14,19.90
2015,08,13,17,15,19.80
2015,08,13,17,16,19.70
2015,08,13,17,17,19.70
2015,08,13,17,18,19.60
2015,08,13,17,19,19.60